This is the latest recevied weather packets stored in our database for station/object KD7CIH. If no packets are shown the sender has not sent any weather packets the latest 10 day(s).
| Time | Temp. | Humidity | Pressure | Rain* | Wind** | Luminosity | Snow |
|---|---|---|---|---|---|---|---|
| 1788149200 | 63° F | 57% | 762 mmHg | 0 in | - | - | - |
| 1788148901 | 63° F | 58% | 762 mmHg | 0 in | - | - | - |
| 1788148473 | 64° F | 58% | 762 mmHg | 0 in | - | - | - |
| 1788148173 | 64° F | 57% | 762 mmHg | 0 in | - | - | - |
| 1788147874 | 64° F | 57% | 762 mmHg | 0 in | - | - | - |
| 1788147573 | 64° F | 56% | 762 mmHg | 0 in | - | - | - |
| 1788147402 | 64° F | 56% | 761.8 mmHg | 0 in | - | - | - |
| 1788146973 | 65° F | 56% | 761.8 mmHg | 0 in | - | - | - |
| 1788146801 | 65° F | 55% | 761.8 mmHg | 0 in | - | - | - |
| 1788146372 | 65° F | 54% | 761.7 mmHg | 0 in | - | - | - |
| 1788146074 | 65° F | 54% | 761.7 mmHg | 0 in | - | - | - |
| 1788145774 | 65° F | 53% | 761.7 mmHg | 0 in | - | - | - |
| 1788145475 | 66° F | 52% | 761.6 mmHg | 0 in | - | - | - |
| 1788145300 | 66° F | 50% | 761.5 mmHg | 0 in | - | - | - |
| 1788144873 | 66° F | 48% | 761.5 mmHg | 0 in | - | - | - |
| 1788144574 | 65° F | 45% | 761.5 mmHg | 0 in | - | - | - |
| 1788144274 | 65° F | 41% | 761.2 mmHg | 0 in | - | - | - |
| 1788143973 | 65° F | 42% | 761.2 mmHg | 0 in | - | - | - |
| 1788143674 | 65° F | 40% | 761.4 mmHg | 0 in | - | - | - |
| 1788143375 | 66° F | 41% | 761.2 mmHg | 0 in | - | - | - |
| 1788143073 | 66° F | 39% | 761.1 mmHg | 0 in | - | - | - |
| 1788142773 | 67° F | 39% | 761 mmHg | 0 in | - | - | - |
| 1788142599 | 67° F | 38% | 760.9 mmHg | 0 in | - | - | - |
| 1788142300 | 68° F | 37% | 760.9 mmHg | 0 in | - | - | - |
| 1788141874 | 68° F | 36% | 760.8 mmHg | 0 in | - | - | - |
* Rain latest hour (hover to see other rain measurements)
** Current wind speed in m/s (hover to see current wind gust speed)